STARLINK-34627, 65016

Orbit data source: Space-Track

STARLINK-34627, 65016 is a payload satellite owned by SpaceX/Seattle (US) in LEO that was launched on Wed, 30 Jul 2025 UTC via an FALCON 9 launch vehicle from the Air Force Eastern Test Range (AFETR). Payload-class satellites include a variety of spacecraft equipped with specific instruments for various scientific and technological missions. These include communications satellites like Starlink; space stations such as the ISS; scientific satellites like the Hubble; Earth observation satellites from companies like Planet Labs, Umbra, and HawkEye 360; GPS; miniature CubeSats for education and research; and military/defense satellites.

Loading next visibility...
Identifier
65016, 2025-161B
Orbit
LEO
Country
Flag of USUS
Related business
Manufacturer
SpaceX/Seattle
Mission
Operational spacecraft
Bus & Motor
STARLINK V2MO, Unknown motor
Mass
575 kg wet, ~530 kg dry
Launch date (UTC)
2025-07-30 (1 month ago)
Launch vehicle
FALCON 9
Launch site
Air Force Eastern Test Range (AFETR)
Object type
Payload
Rocket body
Debris
Shape & HBR
Unknown
Radar Cross Section
Large (>1 m²)

Expand to show TLE details & history
Last TLE update: 19 hours ago

TLE from 19 hours ago
0 STARLINK-34627
1 65016U 25161B   25241.25002315 -.01647356  00000-0 -38207-1 0  9990
2 65016  53.1593 110.4328 0000671 109.8137 234.0881 15.45158394  6038
Epoch: 2025-08-29T06:00Z
TLE epoch observation values (Epoch: 2025-08-29T06:00:02Z)
Latitude
-12.97967°
Longitude
32.83482°
Altitude
434.666 km
Speed
7.651 km/s
True Right ascension
06h 42m 10s
True Declination
-12° 54' 04"
Sunlit
Object was in daylight at epoch
Visualization orbit readout
Latitude
Unknown
Longitude
Unknown
Altitude
Unknown
Speed
Unknown
Apparent Right ascension
Unknown
Apparent Declination
Unknown
Sunlit
N/A
Visualization observer readout
Local Sidereal Time
16:58:10
Azimuth
Unknown
Elevation
Unknown
Doppler factor
Unknown
Orbital elements
Apogee altitude
431.628 km
Perigee altitude
430.714 km
Semi-major axis
6,809.308 km
Eccentricity
0.00007
Inclination
53.1593°
RAAN
110.4328°
Arg. of periapsis
109.8137°
True anomaly
234.08187°
Mean anomaly
234.0881°
Eccentric anomaly
234.08499°
Mean motion
3.86268 °/min
Orbital period
93.2 mins
BSTAR
-0.038207
Loading maneuver chart data...
Computing Atmospheric mass density...
Loading historical data...
Loading historical data...
Loading historical data...
Loading historical data...
Loading historical data...
Loading historical data...
Loading historical data...

Documentation

Showing up to 5 results
|